TimeAST,TemperatureF,Dew PointF,Humidity,Sea Level PressureIn,VisibilityMPH,Wind Direction,Wind SpeedMPH,Gust SpeedMPH,PrecipitationIn,Events,Conditions,WindDirDegrees,DateUTC
12:00 AM,82.4,77.0,84,29.89,6.2,ENE,16.1,-,N/A,,Partly Cloudy,70,2013-09-10 04:00:00
1:00 AM,82.4,77.0,84,29.89,-9999.0,ENE,17.3,-,N/A,,Unknown,70,2013-09-10 05:00:00
2:00 AM,82.4,77.0,84,29.86,-9999.0,East,17.3,-,N/A,,Unknown,80,2013-09-10 06:00:00
3:00 AM,82.4,77.0,84,29.86,-9999.0,East,17.3,-,N/A,,Unknown,80,2013-09-10 07:00:00
4:00 AM,82.4,77.0,84,29.86,-9999.0,ENE,18.4,-,N/A,,Unknown,70,2013-09-10 08:00:00
5:00 AM,82.4,77.0,84,29.86,-9999.0,East,16.1,-,N/A,,Unknown,80,2013-09-10 09:00:00
6:00 AM,82.4,77.0,84,29.89,-9999.0,ENE,17.3,-,N/A,,Unknown,70,2013-09-10 10:00:00
6:55 AM,82.4,77.0,84,29.89,-9999.0,ENE,12.7,-,N/A,,Unknown,70,2013-09-10 10:55:00
7:55 AM,84.2,77.0,79,29.92,6.2,East,16.1,-,N/A,,Scattered Clouds,80,2013-09-10 11:55:00
8:55 AM,86.0,77.0,74,29.95,6.2,East,18.4,-,N/A,,Scattered Clouds,80,2013-09-10 12:55:00
9:55 AM,87.8,77.0,70,29.95,6.2,East,16.1,-,N/A,,Scattered Clouds,90,2013-09-10 13:55:00
11:00 AM,87.8,77.0,70,29.95,6.2,East,18.4,-,N/A,,Scattered Clouds,90,2013-09-10 15:00:00
12:00 PM,87.8,77.0,70,29.95,6.2,East,18.4,-,N/A,,Mostly Cloudy,90,2013-09-10 16:00:00
12:55 PM,87.8,77.0,70,29.89,6.2,East,19.6,-,N/A,,Scattered Clouds,90,2013-09-10 16:55:00
2:00 PM,88,77,63,29.88,12,East,19.6,,,,Mostly Cloudy,80,2013-09-10 18:00:00
2:00 PM,87.8,77.0,70,29.86,6.2,East,19.6,-,N/A,,Mostly Cloudy,80,2013-09-10 18:00:00
3:00 PM,87.8,77.0,70,29.86,6.2,East,15.0,-,N/A,,Scattered Clouds,100,2013-09-10 19:00:00
4:00 PM,86.0,77.0,74,29.83,6.2,East,15.0,-,N/A,,Scattered Clouds,90,2013-09-10 20:00:00
5:00 PM,86,77,69,29.86,12,East,15.0,,,,Partly Cloudy,100,2013-09-10 21:00:00
5:00 PM,86.0,77.0,74,29.86,6.2,East,15.0,-,N/A,,Scattered Clouds,100,2013-09-10 21:00:00
5:55 PM,84.2,77.0,79,29.86,-9999.0,East,16.1,-,N/A,,Unknown,90,2013-09-10 21:55:00
7:00 PM,84.2,77.0,79,29.86,6.2,East,15.0,-,N/A,,Scattered Clouds,90,2013-09-10 23:00:00
7:55 PM,84.2,77.0,79,29.86,-9999.0,East,15.0,-,N/A,,Unknown,90,2013-09-10 23:55:00
8:00 PM,84,77,74,29.87,12,East,15.0,,,,Scattered Clouds,90,2013-09-11 00:00:00
8:00 PM,84.2,77.0,79,29.86,6.2,East,15.0,-,N/A,,Partly Cloudy,90,2013-09-11 00:00:00
8:55 PM,84.2,77.0,79,29.86,-9999.0,ENE,10.4,-,N/A,,Unknown,70,2013-09-11 00:55:00